GW3838 Weather Reports


Display with metric or nautical units.
time (UTC)temp
F
wind
direction
speed
MPH
gust
MPH
rain 1hr
in
rain 24hr
in
rain mn
in
humidity
%
barometer
mb
20260504005209 59 157 0.0 0.0 0.00 0.13 0.13 71 1023.5
20260504004707 60 157 1.0 1.0 0.00 0.13 0.13 71 1023.1
20260504004204 60 157 0.0 0.0 0.00 0.13 0.13 68 1023.1
20260504003700 61 157 0.0 1.0 0.00 0.13 0.13 69 1023.1
20260504003157 61 157 0.0 1.0 0.00 0.13 0.13 69 1023.0
20260504002653 62 157 0.0 0.0 0.00 0.13 0.13 67 1023.2
20260504002150 63 157 0.0 0.0 0.00 0.13 0.13 68 1023.0
20260504001648 64 157 1.0 1.0 0.00 0.13 0.13 68 1023.1
20260504001144 64 157 0.0 0.0 0.00 0.13 0.13 65 1022.8
20260504000641 65 157 0.0 1.0 0.00 0.13 0.13 63 1022.7
20260504000139 66 157 0.0 0.0 0.00 0.13 0.13 60 1022.9
20260503235637 66 157 0.0 1.0 0.00 0.13 0.13 55 1022.7
20260503235133 67 159 0.0 0.0 0.00 0.13 0.13 54 1022.5
20260503234631 68 159 0.0 0.0 0.00 0.13 0.13 50 1022.6
20260503234129 69 160 0.0 0.0 0.00 0.13 0.13 47 1022.7
20260503233626 69 167 0.0 0.0 0.00 0.13 0.13 44 1022.6
20260503233122 70 168 0.0 1.0 0.00 0.13 0.13 44 1022.5
20260503232619 71 139 0.0 1.0 0.00 0.13 0.13 43 1022.4
20260503232116 71 172 0.0 2.0 0.00 0.13 0.13 40 1022.5
20260503231614 72 187 1.0 2.0 0.00 0.13 0.13 44 1022.6
20260503231111 71 207 2.0 6.0 0.00 0.13 0.13 40 1022.6
20260503230608 71 258 2.0 3.0 0.00 0.13 0.13 40 1022.8
20260503230105 72 221 2.0 5.0 0.00 0.13 0.13 39 1022.4
20260503225602 72 204 1.0 2.0 0.00 0.13 0.13 41 1022.6
20260503225057 73 190 1.0 2.0 0.00 0.13 0.13 40 1022.6
20260503224555 73 317 2.0 5.0 0.00 0.13 0.13 40 1022.5
20260503224053 73 313 2.0 6.0 0.00 0.13 0.13 40 1022.7
20260503223550 73 164 0.0 1.0 0.00 0.13 0.13 41 1022.7
20260503223045 72 225 3.0 3.0 0.00 0.13 0.13 41 1022.8
20260503222544 73 191 1.0 2.0 0.00 0.13 0.13 39 1022.6
20260503222041 73 247 2.0 2.0 0.00 0.13 0.13 38 1022.9
20260503221539 74 215 2.0 3.0 0.00 0.13 0.13 38 1022.9
20260503221037 73 157 1.0 1.0 0.00 0.13 0.13 38 1022.9
20260503220532 72 186 1.0 3.0 0.00 0.13 0.13 42 1022.7
20260503220029 74 303 4.0 5.0 0.00 0.13 0.13 38 1022.9
20260503215527 73 288 4.0 7.0 0.00 0.13 0.13 37 1022.8
20260503215024 74 340 3.0 7.0 0.00 0.13 0.13 37 1023.1
20260503214522 73 252 5.0 8.0 0.00 0.13 0.13 38 1023.0
20260503214018 73 199 3.0 5.0 0.00 0.13 0.13 38 1023.2
20260503213517 73 182 3.0 9.0 0.00 0.13 0.13 37 1023.1
20260503213013 75 158 2.0 7.0 0.00 0.13 0.13 38 1023.0
20260503212510 74 176 2.0 5.0 0.00 0.13 0.13 40 1023.1
20260503212008 74 240 7.0 9.0 0.00 0.13 0.13 38 1022.8
20260503211505 75 218 4.0 5.0 0.00 0.13 0.13 39 1022.8
20260503211000 74 192 1.0 3.0 0.00 0.13 0.13 38 1022.9
20260503210457 74 200 3.0 3.0 0.00 0.13 0.13 38 1022.9
20260503205952 74 153 1.0 2.0 0.00 0.13 0.13 38 1022.7
20260503205449 74 294 2.0 2.0 0.00 0.13 0.13 38 1022.9
20260503204945 72 169 2.0 2.0 0.00 0.13 0.13 40 1023.0
20260503204443 71 151 3.0 6.0 0.00 0.13 0.13 40 1023.1
20260503203939 73 200 3.0 6.0 0.00 0.13 0.13 39 1023.1
20260503203437 73 203 4.0 7.0 0.00 0.13 0.13 40 1023.1
20260503202933 73 176 1.0 5.0 0.00 0.13 0.13 40 1023.2
20260503202432 72 356 6.0 8.0 0.00 0.13 0.13 40 1023.1
20260503201930 72 258 3.0 5.0 0.00 0.13 0.13 41 1023.2
20260503201427 72 1 5.0 7.0 0.00 0.13 0.13 40 1023.4
20260503200924 72 248 2.0 5.0 0.00 0.13 0.13 40 1023.4
20260503200420 72 260 3.0 6.0 0.00 0.13 0.13 39 1023.5
20260503195917 73 284 4.0 6.0 0.00 0.13 0.13 44 1023.6
20260503195415 71 31 4.0 8.0 0.00 0.13 0.13 44 1023.8
20260503194911 72 5 6.0 9.0 0.00 0.13 0.13 42 1023.8
20260503194408 72 276 4.0 6.0 0.00 0.13 0.13 42 1023.9
20260503193903 72 350 3.0 7.0 0.00 0.13 0.13 44 1023.8
20260503193359 72 318 4.0 6.0 0.00 0.13 0.13 42 1023.8
20260503192855 73 50 2.0 3.0 0.00 0.13 0.13 46 1023.9
20260503192351 72 75 1.0 5.0 0.00 0.13 0.13 43 1024.2
20260503191847 71 54 4.0 6.0 0.00 0.13 0.13 47 1024.3
20260503191345 71 359 4.0 7.0 0.00 0.13 0.13 45 1024.4
20260503190841 71 321 5.0 10.0 0.00 0.13 0.13 44 1024.6
20260503190338 70 96 3.0 5.0 0.00 0.13 0.13 45 1024.6
20260503185835 71 179 3.0 7.0 0.00 0.13 0.13 45 1024.6
20260503185331 70 91 1.0 2.0 0.00 0.13 0.13 45 1024.6
20260503184831 70 147 0.0 7.0 0.00 0.13 0.13 45 1024.9
20260503184327 69 115 3.0 7.0 0.00 0.13 0.13 49 1024.6
20260503183823 70 335 6.0 9.0 0.00 0.13 0.13 48 1024.8
20260503183321 70 16 4.0 6.0 0.00 0.13 0.13 48 1024.9
20260503182818 68 18 1.0 5.0 0.00 0.13 0.13 48 1025.1
20260503182317 68 266 2.0 3.0 0.00 0.13 0.13 50 1025.1
20260503181814 68 0 3.0 7.0 0.00 0.13 0.13 50 1025.1
20260503181311 69 317 5.0 6.0 0.00 0.13 0.13 47 1025.3
20260503180807 69 336 3.0 3.0 0.00 0.13 0.13 47 1025.3
20260503180305 70 67 3.0 3.0 0.00 0.13 0.13 46 1025.5
20260503175801 69 54 4.0 7.0 0.00 0.13 0.13 44 1025.2
20260503175259 69 295 3.0 6.0 0.00 0.13 0.13 45 1025.3
20260503174755 69 73 1.0 5.0 0.00 0.13 0.13 43 1025.7
20260503174253 70 257 5.0 5.0 0.00 0.13 0.13 44 1025.5
20260503173748 70 157 5.0 9.0 0.00 0.13 0.13 44 1025.7
20260503173244 70 221 8.0 10.0 0.00 0.13 0.13 42 1025.9
20260503172741 70 208 10.0 11.0 0.00 0.13 0.13 42 1025.6
20260503172238 70 280 4.0 13.0 0.00 0.13 0.13 48 1025.7
20260503171735 69 259 2.0 8.0 0.00 0.13 0.13 43 1025.8
20260503171232 70 164 4.0 5.0 0.00 0.13 0.13 43 1025.8
20260503170729 70 151 1.0 10.0 0.00 0.13 0.13 46 1025.9
20260503170226 69 154 2.0 5.0 0.00 0.13 0.13 42 1025.9
20260503160147 67 132 1.0 1.0 0.00 0.13 0.13 59 1026.2
20260503150618 66 162 1.0 2.0 0.00 0.13 0.13 64 1026.2
20260503150114 64 8 3.0 5.0 0.00 0.13 0.13 63 1026.3
20260503131007 55 168 1.0 2.0 0.00 0.12 0.12 99 1025.9
20260503130505 56 197 2.0 2.0 0.00 0.12 0.12 99 1026.0
20260503110401 46 162 0.0 0.0 0.00 0.10 0.10 99 1024.8
20260503090252 48 162 0.0 0.0 0.00 0.08 0.08 99 1023.6
20260503081220 49 162 0.0 0.0 0.05 0.07 0.07 99 1023.4
20260503080715 49 162 0.0 0.0 0.05 0.07 0.07 99 1023.4
20260503080212 49 162 0.0 0.0 0.00 0.06 0.06 99 1023.4
20260503072648 50 162 1.0 1.0 0.00 0.06 0.06 99 1023.2
20260503072145 51 162 0.0 1.0 0.07 0.06 0.06 99 1023.1
20260503071642 51 162 0.0 0.0 0.00 0.05 0.05 99 1023.1
20260503071139 51 162 0.0 0.0 0.00 0.05 0.05 99 1023.0
20260503070636 51 162 0.0 0.0 0.00 0.05 0.05 99 1022.7
20260503070134 51 162 0.0 0.0 0.00 0.05 0.05 99 1022.8
20260503060104 53 104 1.0 2.0 0.07 0.04 0.04 98 1022.6
20260503055055 53 110 0.0 0.0 0.00 0.03 0.03 98 1022.9
20260503054550 54 110 0.0 1.0 0.00 0.03 0.03 98 1022.7
20260503054048 53 109 1.0 1.0 0.00 0.03 0.03 98 1022.7
20260503053546 53 112 1.0 1.0 0.05 0.03 0.03 98 1022.8
20260503053044 53 114 0.0 0.0 0.05 0.03 0.03 98 1022.5
20260503052540 53 114 0.0 0.0 0.00 0.02 0.02 98 1022.8
20260503052037 53 114 0.0 0.0 0.00 0.02 0.02 98 1022.5
20260503051532 54 114 0.0 0.0 0.00 0.02 0.02 98 1022.9
20260503051030 54 112 0.0 0.0 0.00 0.02 0.02 98 1022.6
20260503050526 54 112 0.0 0.0 0.00 0.02 0.02 98 1022.6
20260503050024 54 112 0.0 0.0 0.07 0.02 0.02 98 1022.6
20260503045521 54 124 0.0 0.0 0.07 0.02 0.02 98 1022.6
20260503045018 54 124 0.0 0.0 0.00 0.01 0.01 98 1022.4
20260503044514 54 124 0.0 0.0 0.00 0.01 0.01 98 1022.6
20260503044012 54 124 0.0 0.0 0.00 0.01 0.01 98 1022.4
20260503043508 54 124 0.0 0.0 0.00 0.01 0.01 98 1022.2
20260503043004 54 124 0.0 0.0 0.05 0.01 0.01 98 1022.4
20260503042501 54 124 0.0 0.0 0.05 0.01 0.01 98 1022.2
20260503041957 54 123 0.0 0.0 0.00 0.00 0.00 98 1022.3
20260503041454 54 123 0.0 0.0 0.00 0.00 0.00 98 1022.1
20260503040952 54 123 0.0 0.0 0.00 0.00 0.00 98 1022.2
20260503040449 55 123 0.0 0.0 0.00 0.00 0.00 98 1021.9
20260503035946 55 121 0.0 0.0 0.07 1.07 1.07 98 1022.2
20260503035443 55 115 0.0 0.0 0.07 1.07 1.07 98 1022.0
20260503034941 55 114 0.0 0.0 0.00 1.06 1.06 98 1022.0
20260503034438 55 115 0.0 0.0 0.00 1.06 1.06 97 1022.1
20260503033935 55 124 0.0 0.0 0.00 1.06 1.06 97 1021.9
20260503033432 55 164 0.0 0.0 0.00 1.06 1.06 97 1021.9
20260503032930 55 164 0.0 0.0 0.05 1.06 1.06 97 1022.0
20260503032429 55 166 0.0 0.0 0.00 1.05 1.05 97 1021.8
20260503031926 55 137 0.0 0.0 0.00 1.05 1.05 97 1021.8
20260503031424 55 135 0.0 0.0 0.00 1.05 1.05 97 1021.8
20260503030920 55 135 0.0 0.0 0.00 1.05 1.05 97 1021.6
20260503030417 55 135 0.0 0.0 0.07 1.05 1.05 97 1021.6
20260503025913 55 123 1.0 1.0 0.07 1.05 1.05 97 1021.5
20260503025410 55 110 0.0 1.0 0.00 1.04 1.04 97 1021.7
20260503024908 55 80 1.0 2.0 0.00 1.04 1.04 97 1021.3
20260503024404 55 113 1.0 1.0 0.00 1.04 1.04 97 1021.5
20260503023901 55 92 1.0 3.0 0.07 1.04 1.04 97 1021.3
20260503023358 55 70 2.0 2.0 0.07 1.04 1.04 97 1021.3
20260503022855 56 69 2.0 2.0 0.00 1.03 1.03 96 1021.0
20260503022349 56 87 2.0 3.0 0.00 1.03 1.03 96 1021.0
20260503021846 56 117 0.0 1.0 0.05 1.03 1.03 96 1020.9
20260503021337 56 118 0.0 1.0 0.05 1.03 1.03 96 1020.8
20260503020834 56 109 1.0 2.0 0.00 1.02 1.02 96 1020.7
20260503020333 56 111 2.0 3.0 0.00 1.02 1.02 96 1020.5
20260503015829 56 112 1.0 3.0 0.07 1.02 1.02 96 1020.4
20260503015326 56 95 1.0 2.0 0.07 1.02 1.02 96 1020.4
20260503014821 57 74 2.0 2.0 0.00 1.01 1.01 96 1020.5
20260503014319 57 77 1.0 2.0 0.00 1.01 1.01 96 1020.5
20260503013816 57 50 2.0 3.0 0.05 1.01 1.01 96 1020.4
20260503013314 57 73 2.0 2.0 0.05 1.01 1.01 96 1020.6
20260503012810 57 102 1.0 2.0 0.00 1.00 1.00 96 1020.2
20260503012308 57 106 1.0 3.0 0.00 1.00 1.00 96 1020.1
20260503011805 57 110 1.0 2.0 0.07 1.00 1.00 96 1020.1
20260503011302 57 67 3.0 3.0 0.07 1.00 1.00 96 1020.0
20260503010757 57 107 1.0 3.0 0.00 0.99 0.99 96 1019.9
20260503010254 57 92 1.0 2.0 0.05 0.99 0.99 96 1020.1
20260503005751 57 108 0.0 2.0 0.05 0.99 0.99 96 1019.9